This is the latest recevied weather packets stored in our database for station/object AF5AA. If no packets are shown the sender has not sent any weather packets the latest 1 day(s).
| Time | Temp. | Humidity | Pressure | Rain* | Wind** | Luminosity | Snow |
|---|---|---|---|---|---|---|---|
| 1777991923 | 22.78° C | 87% | 1007.4 hPa | 0 mm | 0 m/s | 27 W/m² | - |
| 1777991621 | 22.78° C | 86% | 1007.4 hPa | 0 mm | 0 m/s | 28 W/m² | - |
| 1777991318 | 22.78° C | 85% | 1007.3 hPa | 0 mm | 0 m/s | 25 W/m² | - |
| 1777991015 | 22.78° C | 86% | 1007.3 hPa | 0 mm | 0.45 m/s, 118° | 35 W/m² | - |
| 1777990713 | 22.78° C | 85% | 1007.2 hPa | 0 mm | 0 m/s | 43 W/m² | - |
| 1777990410 | 22.22° C | 85% | 1007.3 hPa | 0 mm | 0 m/s | 42 W/m² | - |
| 1777990106 | 22.22° C | 85% | 1007.2 hPa | 0 mm | 0 m/s | 40 W/m² | - |
| 1777989803 | 22.22° C | 86% | 1007.2 hPa | 0 mm | 0 m/s | 40 W/m² | - |
| 1777989500 | 22.22° C | 86% | 1007.1 hPa | 0 mm | 0.45 m/s, 146° | 40 W/m² | - |
| 1777989196 | 22.22° C | 87% | 1007.2 hPa | 0 mm | 0 m/s | 23 W/m² | - |
| 1777988892 | 22.22° C | 87% | 1007.3 hPa | 0 mm | 0 m/s | 34 W/m² | - |
| 1777988589 | 22.22° C | 87% | 1007 hPa | 0 mm | 0.45 m/s, 97° | 28 W/m² | - |
| 1777988286 | 21.67° C | 88% | 1007 hPa | 0 mm | 0 m/s | 35 W/m² | - |
| 1777987983 | 21.67° C | 89% | 1007.1 hPa | 0 mm | 0 m/s | 39 W/m² | - |
| 1777987678 | 21.67° C | 89% | 1006.9 hPa | 0 mm | 0 m/s | 28 W/m² | - |
| 1777987376 | 21.67° C | 89% | 1007 hPa | 0 mm | 0 m/s | 17 W/m² | - |
| 1777987073 | 21.67° C | 89% | 1006.9 hPa | 0 mm | 0.89 m/s, 115° | 16 W/m² | - |
| 1777986770 | 21.67° C | 89% | 1007.1 hPa | 0 mm | 0 m/s | 7 W/m² | - |
| 1777986468 | 21.67° C | 89% | 1006.9 hPa | 0 mm | 0 m/s | 5 W/m² | - |
| 1777986166 | 21.67° C | 89% | 1007 hPa | 0 mm | 0 m/s | 4 W/m² | - |
| 1777985863 | 21.67° C | 88% | 1007.2 hPa | 0 mm | 0 m/s | 4 W/m² | - |
| 1777985560 | 21.67° C | 89% | 1006.9 hPa | 0 mm | 0 m/s | 7 W/m² | - |
| 1777985257 | 21.67° C | 89% | 1006.8 hPa | 0 mm | 0 m/s | 4 W/m² | - |
| 1777984954 | 21.67° C | 89% | 1006.8 hPa | 0 mm | 0 m/s | 5 W/m² | - |
| 1777984649 | 21.67° C | 89% | 1006.5 hPa | 0 mm | 0 m/s | 7 W/m² | - |
* Rain latest hour (hover to see other rain measurements)
** Current wind speed in m/s (hover to see current wind gust speed)